[[{"header":{"parameterUnit":"m.s-1","parameterCategory":2,"la1":30.2992,"la2":30.254,"lo1":-89.0895,"lo2":-89.0443,"dy":0.0025,"dx":0.0025,"nx":19,"ny":19,"refTime":"2026-05-08T03:00:00:Z","depth":"0","parameterNumber":2,"parameterNumberName":"U-component_of_CURRENTS"},"data":[0,0,0,0.2724,0.2724,0.27,0.2699,0.2668,0.2668,0,0,0,0,0,0,0,0,0,0,0,0.2726,0.2726,0.2724,0.2724,0.27,0.2699,0.2668,0.2668,0,0,0,0,0,0,0,0,0,0,0,0.2726,0.2726,0.2726,0.2724,0.27,0.2699,0.2668,0.2683,0,0,0,0,0,0,0,0,0,0,0.2705,0.2714,0.2726,0.2726,0.2724,0.27,0.2699,0.2683,0.2682,0.2685,0,0.2687,0,0.2688,0.2668,0.2668,0,0,0,0.2708,0.2716,0.2712,0.2726,0.2724,0.27,0.2706,0.2682,0.2681,0.2683,0.2686,0.2685,0.2687,0.2667,0.2667,0.2688,0.2688,0,0,0.2709,0.2717,0.2713,0.2711,0.2726,0.2707,0.2706,0.2681,0.2682,0.2686,0.2685,0.2687,0.2667,0.2667,0.2688,0.2688,0,0,0,0.2724,0.2718,0.2714,0.2712,0.2714,0.2707,0.2705,0.2682,0.2682,0.2685,0.2686,0.2667,0.2667,0.2687,0.2688,0.2722,0,0,0,0.2724,0.2728,0.2715,0.2718,0.2714,0.2699,0.2707,0.2683,0.2681,0.2686,0.2667,0.2667,0.2687,0.2688,0.2721,0.2722,0,0,0,0.2726,0.2728,0.2728,0.2719,0.2717,0.27,0.2697,0.2682,0.2683,0.2667,0.2667,0.2687,0.2688,0.2719,0.272,0.2776,0,0,0,0.2729,0.2726,0.2728,0.274,0.2717,0.2719,0.2697,0.2694,0.2684,0.2667,0.2687,0.2688,0.2719,0.2719,0.2774,0.2789,0.2799,0,0,0.2724,0.2725,0.2736,0.2738,0.2743,0.2721,0.2722,0.2699,0.2695,0.2692,0.2692,0.2721,0.272,0.2776,0.2829,0.2838,0,0,0,0.2736,0.2731,0.2738,0.2746,0.2754,0.2737,0.272,0.2722,0.2725,0.2696,0.2726,0.2723,0.2758,0.2763,0.277,0.2606,0.2691,0.2691,0.2691,0.2691,0.2717,0.2717,0.2734,0.2747,0.2748,0.2748,0.2745,0.2743,0.2758,0.2756,0.2823,0.2829,0.2834,0.2664,0.2767,0.2767,0.2768,0.2768,0.2653,0.2645,0.2687,0.269,0.2709,0.2716,0.2754,0.2764,0.2812,0.2789,0.2822,0.2803,0.2845,0.266,0.277,0.277,0.2769,0.2769,0.2769,0.2598,0.2594,0.2609,0.2619,0.2645,0.2683,0.2736,0.2795,0.2832,0.2869,0.2903,0.2903,0.2738,0.2906,0.2907,0.2907,0.2907,0.2907,0.2907,0.2522,0.2539,0.2529,0.2548,0.2562,0.262,0.2736,0.2807,0.2915,0.2936,0.2937,0.2737,0.2866,0.2858,0.2912,0.2911,0.291,0.291,0.291,0.2443,0.2459,0.2439,0.2443,0.2485,0.2507,0.2662,0.2841,0.294,0.3,0.2811,0.2981,0.2975,0.2969,0.2964,0.3041,0.3041,0.3041,0.3041,0.2383,0.2392,0.2371,0.2374,0.2396,0.2459,0.2504,0.2631,0.2755,0.2735,0.277,0.2705,0.2708,0.268,0.268,0.2667,0.2667,0.2666,0.2666,0.2328,0.2337,0.2301,0.2321,0.2354,0.2382,0.2346,0.2321,0.2493,0.263,0.2535,0.2551,0.2434,0.2451,0.2389,0.2402,0.2375,0,0]},{"header":{"parameterUnit":"m.s-1","parameterCategory":2,"la1":30.2992,"la2":30.254,"lo1":-89.0895,"lo2":-89.0443,"dy":0.0025,"dx":0.0025,"nx":19,"ny":19,"refTime":"2026-05-08T03:00:00:Z","depth":"0","parameterNumber":3,"parameterNumberName":"V-component_of_CURRENTS"},"data":[0,0,0,-0.1163,-0.1163,-0.1159,-0.116,-0.1225,-0.1226,0,0,0,0,0,0,0,0,0,0,0,-0.1171,-0.1171,-0.1163,-0.1163,-0.1159,-0.116,-0.1225,-0.1226,0,0,0,0,0,0,0,0,0,0,0,-0.1171,-0.1171,-0.1171,-0.1163,-0.1159,-0.116,-0.1225,-0.1214,0,0,0,0,0,0,0,0,0,0,-0.121,-0.1189,-0.1171,-0.1171,-0.1163,-0.1159,-0.116,-0.1213,-0.1215,-0.1243,0,-0.1235,0,-0.1224,-0.1231,-0.1231,0,0,0,-0.1177,-0.1187,-0.1195,-0.1171,-0.1162,-0.1159,-0.1165,-0.1213,-0.1215,-0.1246,-0.1236,-0.1237,-0.1226,-0.1231,-0.1232,-0.1228,-0.1228,0,0,-0.1177,-0.1166,-0.1193,-0.1196,-0.1154,-0.1165,-0.1165,-0.1214,-0.1209,-0.1236,-0.1238,-0.1227,-0.1232,-0.1232,-0.1229,-0.1228,0,0,0,-0.1168,-0.1166,-0.1172,-0.1194,-0.1184,-0.1164,-0.1164,-0.1207,-0.1211,-0.1239,-0.1227,-0.1232,-0.1233,-0.1229,-0.1229,-0.1111,0,0,0,-0.1169,-0.116,-0.1172,-0.1164,-0.1182,-0.1182,-0.1156,-0.1208,-0.1213,-0.1227,-0.1232,-0.1234,-0.123,-0.1229,-0.1116,-0.1029,0,0,0,-0.1173,-0.116,-0.1159,-0.1164,-0.1156,-0.118,-0.1187,-0.1209,-0.1206,-0.1231,-0.1234,-0.1231,-0.1229,-0.112,-0.1038,-0.0932,0,0,0,-0.1164,-0.1155,-0.1158,-0.1144,-0.1156,-0.1142,-0.1186,-0.1184,-0.12,-0.1232,-0.123,-0.1229,-0.1121,-0.1043,-0.0938,-0.0715,-0.0669,0,0,-0.115,-0.1152,-0.1146,-0.1149,-0.1115,-0.1144,-0.1098,-0.114,-0.119,-0.1223,-0.1223,-0.1114,-0.1038,-0.0933,-0.0638,-0.0594,0,0,0,-0.114,-0.1125,-0.1121,-0.1097,-0.1097,-0.1045,-0.1089,-0.1093,-0.1101,-0.1189,-0.112,-0.1075,-0.1013,-0.0891,-0.0857,-0.09,-0.1222,-0.1223,-0.1223,-0.1059,-0.1071,-0.1028,-0.1024,-0.1011,-0.0983,-0.0943,-0.0954,-0.1045,-0.1019,-0.0985,-0.0829,-0.07,-0.0671,-0.072,-0.1011,-0.1011,-0.101,-0.101,-0.0976,-0.0928,-0.0933,-0.0898,-0.086,-0.0819,-0.0797,-0.0816,-0.0761,-0.0872,-0.0819,-0.078,-0.0625,-0.0692,-0.1003,-0.1004,-0.1005,-0.1006,-0.1006,-0.0878,-0.0853,-0.0841,-0.0768,-0.0686,-0.0678,-0.0527,-0.0565,-0.0627,-0.0569,-0.0454,-0.0454,-0.0504,-0.0559,-0.0558,-0.0558,-0.0557,-0.0556,-0.0556,-0.0759,-0.0751,-0.0669,-0.062,-0.0541,-0.0438,-0.0359,-0.0283,-0.023,-0.0272,-0.0271,-0.043,-0.0691,-0.0699,-0.0542,-0.0545,-0.0547,-0.0548,-0.0549,-0.0608,-0.0617,-0.0495,-0.0413,-0.0244,-0.0041,-0.0015,0.0203,0.0225,0.0309,0.0045,-0.0107,-0.0111,-0.0138,-0.0133,0.0161,0.0161,0.0161,0.0161,-0.0492,-0.0495,-0.0306,-0.0149,0.0037,0.0156,0.0518,0.0642,0.0561,0.0484,0.0306,0.0228,0.0201,0.0205,0.017,0.0175,0.0541,0.0541,0.054,-0.0359,-0.0334,-0.016,-0.0045,0.0175,0.04,0.0761,0.0972,0.0798,0.0537,0.0204,0.0188,0.0038,-0.0001,-0.0034,-0.0079,-0.0086,0,0]}],[{"header":{"parameterUnit":"m.s-1","parameterCategory":2,"la1":30.2992,"la2":30.254,"lo1":-89.0895,"lo2":-89.0443,"dy":0.0025,"dx":0.0025,"nx":19,"ny":19,"refTime":"2026-05-08T03:00:00:Z","depth":"2","parameterNumber":2,"parameterNumberName":"U-component_of_CURRENTS"},"data":[0,0,0,0.289,0.2892,0.2921,0.2921,0.2911,0.2911,0,0,0,0,0,0,0,0,0,0,0,0.2875,0.2876,0.289,0.2892,0.2921,0.2921,0.2911,0.2911,0,0,0,0,0,0,0,0,0,0,0,0.2875,0.2876,0.2878,0.2892,0.2921,0.2921,0.2911,0.289,0,0,0,0,0,0,0,0,0,0,0.2864,0.2871,0.2876,0.2878,0.2893,0.2921,0.2921,0.2889,0.2892,0.2897,0,0.2932,0,0.2942,0.2913,0.2913,0,0,0,0.2851,0.2869,0.2889,0.2878,0.2894,0.2921,0.2896,0.2891,0.2893,0.29,0.2932,0.2932,0.2942,0.2913,0.2913,0.2929,0.2929,0,0,0.2849,0.286,0.2887,0.2891,0.2941,0.2896,0.2898,0.2892,0.2905,0.2932,0.2932,0.2942,0.2913,0.2914,0.2929,0.2929,0,0,0,0.2872,0.2859,0.2878,0.2891,0.2913,0.2898,0.29,0.2904,0.2915,0.2932,0.2942,0.2914,0.2914,0.2929,0.2929,0.2928,0,0,0,0.2869,0.2876,0.2878,0.2882,0.2914,0.2916,0.2911,0.2915,0.2915,0.2942,0.2914,0.2914,0.2929,0.2929,0.2928,0.2907,0,0,0,0.2867,0.2875,0.2893,0.2883,0.2916,0.2917,0.2925,0.2914,0.2923,0.2913,0.2914,0.2929,0.2929,0.2928,0.2908,0.298,0,0,0,0.2853,0.2828,0.2894,0.2875,0.2917,0.2927,0.2925,0.2918,0.2908,0.2914,0.2929,0.2929,0.2928,0.2908,0.2979,0.2828,0.2819,0,0,0.2788,0.2821,0.2804,0.2863,0.2896,0.2917,0.2906,0.2893,0.2907,0.2921,0.2921,0.2928,0.2908,0.298,0.282,0.2811,0,0,0,0.2759,0.2749,0.2777,0.2817,0.2873,0.2897,0.2899,0.291,0.2911,0.2913,0.2925,0.2912,0.2958,0.2865,0.2858,0.2928,0.2928,0.2928,0.2928,0.2687,0.2712,0.2704,0.2746,0.2787,0.2867,0.2872,0.2883,0.291,0.2911,0.291,0.2956,0.2854,0.2848,0.292,0.292,0.292,0.292,0.292,0.2623,0.2601,0.2656,0.2647,0.2731,0.2743,0.2821,0.285,0.2909,0.29,0.2948,0.2864,0.284,0.292,0.292,0.292,0.292,0.292,0.292,0.2614,0.2581,0.2588,0.2593,0.2608,0.268,0.2722,0.2817,0.2894,0.2926,0.2894,0.2891,0.2978,0.2991,0.2991,0.2991,0.2992,0.2992,0.2992,0.2595,0.2578,0.2541,0.2533,0.2525,0.2568,0.2694,0.2757,0.2851,0.2867,0.2867,0.2981,0.2979,0.2983,0.2995,0.2995,0.2994,0.2994,0.2994,0.2515,0.2531,0.2468,0.2449,0.2424,0.239,0.2547,0.262,0.2742,0.2745,0.2848,0.285,0.2846,0.2849,0.2849,0.2828,0.2828,0.2828,0.2828,0.2466,0.2468,0.237,0.2322,0.229,0.2303,0.2211,0.2202,0.2391,0.2437,0.2453,0.2362,0.2378,0.2344,0.2358,0.2348,0.2195,0.2194,0.2193,0.2408,0.2384,0.2293,0.2242,0.22,0.2161,0.1945,0.1729,0.189,0.2164,0.2308,0.2792,0.2701,0.2709,0.2693,0.2701,0.2699,0,0]},{"header":{"parameterUnit":"m.s-1","parameterCategory":2,"la1":30.2992,"la2":30.254,"lo1":-89.0895,"lo2":-89.0443,"dy":0.0025,"dx":0.0025,"nx":19,"ny":19,"refTime":"2026-05-08T03:00:00:Z","depth":"2","parameterNumber":3,"parameterNumberName":"V-component_of_CURRENTS"},"data":[0,0,0,-0.0062,-0.0065,-0.0284,-0.0286,-0.0458,-0.0459,0,0,0,0,0,0,0,0,0,0,0,-0.0049,-0.005,-0.0062,-0.0065,-0.0284,-0.0286,-0.0458,-0.0459,0,0,0,0,0,0,0,0,0,0,0,-0.0048,-0.005,-0.0052,-0.0065,-0.0284,-0.0286,-0.0458,-0.0337,0,0,0,0,0,0,0,0,0,0,-0.0145,-0.0148,-0.005,-0.0052,-0.0066,-0.0283,-0.0286,-0.0333,-0.0344,-0.0305,0,-0.0346,0,-0.0342,-0.0461,-0.0461,0,0,0,-0.0137,-0.014,-0.0146,-0.0052,-0.0067,-0.0283,-0.0206,-0.0341,-0.0353,-0.0319,-0.0348,-0.0353,-0.0345,-0.0461,-0.0462,-0.0412,-0.0411,0,0,-0.0125,-0.0137,-0.0138,-0.0154,-0.0128,-0.0198,-0.0211,-0.0351,-0.0392,-0.0348,-0.0357,-0.0348,-0.0462,-0.0462,-0.0413,-0.0412,0,0,0,-0.0041,-0.0129,-0.0139,-0.0148,-0.0161,-0.0203,-0.0218,-0.0389,-0.0378,-0.0358,-0.035,-0.0462,-0.0462,-0.0414,-0.0413,-0.0329,0,0,0,-0.0038,-0.0073,-0.0133,-0.0149,-0.0159,-0.0294,-0.0254,-0.0372,-0.0385,-0.0349,-0.0462,-0.0463,-0.0415,-0.0413,-0.0334,-0.0287,0,0,0,-0.0038,-0.0073,-0.0089,-0.0148,-0.0197,-0.0292,-0.0297,-0.0378,-0.0374,-0.0461,-0.0463,-0.0415,-0.0413,-0.0337,-0.0294,-0.0195,0,0,0,-0.0054,-0.0038,-0.0092,-0.0056,-0.0194,-0.0244,-0.0297,-0.038,-0.0455,-0.0462,-0.0415,-0.0413,-0.0339,-0.0298,-0.02,-0.0053,-0.0018,0,0,-0.0008,-0.0036,0.0008,-0.0038,-0.0083,-0.0219,-0.0226,-0.0347,-0.0401,-0.0376,-0.0377,-0.0332,-0.0294,-0.0196,0.0058,0.009,0,0,0,0.0047,0.0053,0.0038,-0.0008,-0.0077,-0.0127,-0.0252,-0.0293,-0.0329,-0.0419,-0.0316,-0.0294,-0.0235,-0.0157,-0.0131,-0.0404,-0.0404,-0.0404,-0.0404,0.0058,0.0065,0.008,0.0077,0.0019,-0.0096,-0.0108,-0.0172,-0.0258,-0.0243,-0.0215,-0.0068,0.0017,0.0038,-0.0208,-0.0208,-0.0208,-0.0207,-0.0207,0.0109,0.0146,0.0111,0.0132,0.0081,0.0039,0.0038,-0.0009,0.0003,-0.0111,-0.0057,-0.0059,0.0071,-0.02,-0.0202,-0.0203,-0.0203,-0.0204,-0.0204,0.0118,0.0137,0.0132,0.012,0.013,0.0143,0.0238,0.018,0.0105,0.0137,0.0205,0.0204,-0.0006,0.0137,0.0138,0.0138,0.0139,0.0139,0.014,0.0087,0.0084,0.0142,0.0151,0.0209,0.0299,0.0327,0.0391,0.0393,0.0328,0.033,0.0049,0.0037,0.0015,0.015,0.0148,0.0147,0.0146,0.0145,0.0128,0.0084,0.0182,0.0251,0.0405,0.0562,0.0602,0.0746,0.0738,0.0786,0.0469,0.0458,0.0454,0.0434,0.0422,0.0654,0.0654,0.0655,0.0655,0.0148,0.0144,0.0265,0.041,0.0595,0.0711,0.0945,0.0955,0.0875,0.0761,0.0755,0.0688,0.0667,0.0668,0.0642,0.063,0.0917,0.0917,0.0917,0.0182,0.0222,0.0354,0.0475,0.0686,0.0889,0.1079,0.1039,0.09,0.0915,0.0676,0.0696,0.0579,0.0554,0.0532,0.05,0.0471,0,0]}],[{"header":{"parameterUnit":"m.s-1","parameterCategory":2,"la1":30.2992,"la2":30.254,"lo1":-89.0895,"lo2":-89.0443,"dy":0.0025,"dx":0.0025,"nx":19,"ny":19,"refTime":"2026-05-08T03:00:00:Z","depth":"4","parameterNumber":2,"parameterNumberName":"U-component_of_CURRENTS"},"data":[0,0,0,0.0624,0.0625,0.0734,0.0735,0.0962,0.0964,0,0,0,0,0,0,0,0,0,0,0,0.0601,0.0602,0.0624,0.0625,0.0734,0.0735,0.0962,0.0964,0,0,0,0,0,0,0,0,0,0,0,0.0601,0.0602,0.0602,0.0626,0.0734,0.0735,0.0962,0.0866,0,0,0,0,0,0,0,0,0,0,0.0753,0.0697,0.0601,0.0602,0.0626,0.0733,0.0735,0.0861,0.0872,0.0928,0,0.0931,0,0.0934,0.0978,0.0979,0,0,0,0.066,0.0687,0.0717,0.0602,0.0626,0.0733,0.0695,0.0867,0.0879,0.0943,0.0934,0.0942,0.0937,0.098,0.0981,0.1158,0.1159,0,0,0.0654,0.0629,0.0708,0.0725,0.064,0.0691,0.0698,0.0874,0.0882,0.0935,0.0946,0.0941,0.0981,0.0983,0.1158,0.1159,0,0,0,0.0613,0.0624,0.0649,0.0716,0.0718,0.0693,0.0701,0.0875,0.0883,0.0949,0.0944,0.0982,0.0985,0.1158,0.1158,0.1221,0,0,0,0.0612,0.0598,0.0646,0.0633,0.0713,0.0782,0.0698,0.0871,0.089,0.0943,0.0982,0.0987,0.1157,0.1158,0.1218,0.1309,0,0,0,0.0599,0.0596,0.0604,0.0631,0.066,0.0778,0.0798,0.0876,0.0886,0.0979,0.0987,0.1157,0.1158,0.1216,0.1303,0.1331,0,0,0,0.0578,0.0601,0.0603,0.064,0.0659,0.072,0.0797,0.0869,0.0943,0.0983,0.1157,0.1158,0.1215,0.1299,0.1328,0.1097,0,0,0,0.0601,0.0603,0.0629,0.0634,0.068,0.0708,0.0805,0.0936,0.0979,0.1111,0.1115,0.1219,0.1302,0.1331,0.1151,0,0,0,0,0.0634,0.0662,0.0673,0.0704,0.0725,0.08,0.0887,0.095,0.11,0.102,0.1219,0.1272,0.1287,0.1141,0.1163,0.1162,0.1162,0.1162,0.1162,0.0652,0.0681,0.0738,0.0787,0.0812,0.0882,0.0984,0.1093,0.1118,0.1191,0.132,0.1392,0.1237,0.1282,0.1283,0.1283,0.1283,0.1283,0.1283,0.0684,0.0722,0.0789,0.087,0.0929,0.1009,0.1141,0.1199,0.14,0.1379,0.1387,0.1214,0.129,0.1288,0.1287,0.1287,0.1286,0.1286,0.1286,0.0667,0.0697,0.0776,0.088,0.1022,0.1124,0.1255,0.1387,0.1484,0.1563,0.138,0.1453,0.145,0.1548,0.1549,0.1549,0.155,0.155,0.155,0.0587,0.0665,0.0762,0.0914,0.1015,0.1166,0.1349,0.142,0.1511,0.1482,0.16,0.1482,0.1473,0.1466,0.1558,0.1557,0.1556,0.1555,0.1555,0.0525,0.0577,0.0683,0.0795,0.1003,0.1091,0.1275,0.1342,0.1402,0.1406,0.1404,0.1409,0.1376,0.1371,0.1358,0.1422,0.142,0.1417,0,0.0469,0.0511,0.0633,0.0747,0.0862,0.1031,0.1041,0.1134,0.1253,0.1225,0.1405,0.1401,0.1403,0.136,0.1351,0.1332,0,0,0,0.041,0.0475,0.0541,0.0688,0.0803,0.0896,0.104,0.1042,0.1243,0.1212,0.1353,0.137,0.1398,0.1582,0.1546,0.1535,0.1523,0,0]},{"header":{"parameterUnit":"m.s-1","parameterCategory":2,"la1":30.2992,"la2":30.254,"lo1":-89.0895,"lo2":-89.0443,"dy":0.0025,"dx":0.0025,"nx":19,"ny":19,"refTime":"2026-05-08T03:00:00:Z","depth":"4","parameterNumber":3,"parameterNumberName":"V-component_of_CURRENTS"},"data":[0,0,0,0.0714,0.0715,0.0807,0.0808,0.0842,0.0842,0,0,0,0,0,0,0,0,0,0,0,0.0703,0.0704,0.0714,0.0716,0.0807,0.0808,0.0842,0.0842,0,0,0,0,0,0,0,0,0,0,0,0.0702,0.0703,0.0705,0.0716,0.0807,0.0808,0.0842,0.0796,0,0,0,0,0,0,0,0,0,0,0.0718,0.0717,0.0703,0.0705,0.0716,0.0807,0.0808,0.0794,0.0798,0.0774,0,0.0804,0,0.0809,0.0842,0.0841,0,0,0,0.0724,0.0714,0.0733,0.0705,0.0717,0.0807,0.0768,0.0797,0.0802,0.0779,0.0804,0.0806,0.0809,0.0841,0.0841,0.087,0.087,0,0,0.0719,0.0719,0.073,0.0736,0.0759,0.0765,0.0771,0.0801,0.0814,0.0804,0.0806,0.081,0.0841,0.0841,0.0869,0.087,0,0,0,0.0699,0.0716,0.0736,0.0735,0.075,0.0768,0.0774,0.0814,0.082,0.0807,0.081,0.0841,0.0841,0.0869,0.0869,0.0924,0,0,0,0.0696,0.0702,0.0734,0.0735,0.075,0.0793,0.0786,0.0819,0.0822,0.081,0.0841,0.0841,0.0868,0.0869,0.0922,0.0919,0,0,0,0.0695,0.0702,0.0718,0.0734,0.0767,0.0793,0.0802,0.082,0.0822,0.0841,0.0841,0.0868,0.0869,0.092,0.0916,0.0869,0,0,0,0.0683,0.0727,0.0718,0.0767,0.0767,0.0812,0.0803,0.0841,0.0862,0.0841,0.0869,0.0869,0.0919,0.0914,0.0868,0.0781,0,0,0,0.0727,0.0732,0.0758,0.0752,0.08,0.0799,0.0854,0.0878,0.0863,0.0853,0.0855,0.0922,0.0916,0.0869,0.0832,0,0,0,0,0.0764,0.0787,0.0799,0.0829,0.0847,0.0872,0.0895,0.09,0.0923,0.0877,0.0924,0.0918,0.0886,0.0835,0.0873,0.0873,0.0873,0.0873,0.0873,0.0828,0.0832,0.0872,0.0886,0.0911,0.093,0.0944,0.0952,0.0952,0.0972,0.0965,0.0968,0.0921,0.0981,0.0982,0.0982,0.0982,0.0982,0.0982,0.0875,0.0881,0.0911,0.0953,0.097,0.1012,0.1012,0.1015,0.0999,0.1015,0.0982,0.0902,0.0988,0.0987,0.0986,0.0985,0.0985,0.0985,0.0984,0.088,0.0878,0.0924,0.098,0.1029,0.106,0.1053,0.1057,0.1031,0.1012,0.0914,0.0973,0.096,0.0997,0.0997,0.0997,0.0996,0.0996,0.0996,0.084,0.0879,0.093,0.1,0.1041,0.1078,0.1075,0.1032,0.1007,0.0937,0.1017,0.0971,0.0971,0.0959,0.0993,0.0994,0.0994,0.0994,0.0995,0.0794,0.0843,0.0892,0.0947,0.102,0.103,0.1056,0.095,0.0879,0.0799,0.0869,0.0876,0.0826,0.0828,0.0809,0.08,0.0799,0.0798,0,0.0766,0.0794,0.0847,0.0897,0.093,0.098,0.089,0.0845,0.0786,0.0781,0.0858,0.0941,0.0944,0.0894,0.0893,0.0874,0,0,0,0.0739,0.0759,0.078,0.0847,0.0879,0.0838,0.0855,0.08,0.083,0.0721,0.0771,0.0778,0.0913,0.0985,0.0923,0.0922,0.0898,0,0]}]]